Location: ????????
(60.4333°N, 46.4710°E)
Time: 19:36:55
(UTC+00:00)

Cosmos 1633 Rocket - Pass Details

Date: 25 November 2020
Orbit: 606 x 624 km, 82.5° (Epoch: 16 January)

Event Time Altitude Azimuth Distance (km) Brightness Sun altitude
Rises 14:44:09 0° 345° (NNW) 2,914 6.6 -18.4°
Reaches altitude 10° 14:46:23 10° 344° (NNW) 2,001 5.7 -18.7°
Maximum altitude 14:50:50 82° 257° (WSW) 632 3.1 -19.2°
Drops below altitude 10° 14:55:12 10° 172° (S) 1,975 5.6 -19.8°
Sets 14:57:24 0° 171° (S) 2,873 6.5 -20.1°
